Regional Weather Roundup
Issued by NWS

Home | Current Version | Previous Version | Graphics & Text | Print | Product List | Glossary On
Versions: 1 2 3 4 5 6 7 8 9 10 11 12 13 14 15 16 17 18 19 20 21 22 23 24 25 26 27 28 29 30 31 32 33 34 35 36 37 38 39 40 41 42 43 44 45 46 47 48 49 50
000
ASUS43 KBIS 301220
RWRND

NORTH DAKOTA REGIONAL WEATHER ROUNDUP
NATIONAL WEATHER SERVICE BISMARCK ND
700 AM CDT TUE SEP 30 2014

NOTE: "FAIR" INDICATES FEW OR NO CLOUDS BELOW 12,000 FEET WITH NO
SIGNIFICANT WEATHER AND/OR OBSTRUCTIONS TO VISIBILITY.


NDZ001>003-009>011-017-301300-
NORTHWEST NORTH DAKOTA

CITY           SKY/WX    TMP DP  RH WIND       PRES   REMARKS
WILLISTON      LGT RAIN  53  51  93 E5        29.72F
6HR MIN TEMP:  53; 6HR MAX TEMP:  54; 6HR PCP:  0.18;

MINOT          CLOUDY    50  47  89 E10       29.78F
MINOT AFB      CLOUDY    50  48  93 SE13      29.77F
$$

NDZ018>021-031>035-040>046-301300-
SOUTHWEST NORTH DAKOTA

CITY           SKY/WX    TMP DP  RH WIND       PRES   REMARKS
BISMARCK       CLOUDY    54  50  86 E13       29.75F
6HR MIN TEMP:  53; 6HR MAX TEMP:  56;

DICKINSON      LGT RAIN  51  50  96 E12       29.67F VSB 3/4
GARRISON         N/A     52  51  97 E12       29.75F
6HR MIN TEMP:  52; 6HR MAX TEMP:  53; 6HR PCP:  0.04;

HETTINGER ARPT CLOUDY    53  52  96 E13       29.67F
$$

NDZ004>008-012>016-024-026-027-054-301300-
NORTHEAST NORTH DAKOTA

CITY           SKY/WX    TMP DP  RH WIND       PRES   REMARKS
GRAND FORKS    PTCLDY    43  41  93 SE9       29.96F
GRND FRKS AFB  CLEAR     40  40  99 SE7       29.96F
DEVILS LAKE    CLOUDY    46  39  76 SE15      29.85F
$$

NDZ022-023-025-028>030-036>039-047>053-301300-
SOUTHEAST NORTH DAKOTA

CITY           SKY/WX    TMP DP  RH WIND       PRES   REMARKS
FARGO          CLOUDY    45  42  89 SE12      29.95F
6HR MIN TEMP:  44; 6HR MAX TEMP:  47;

JAMESTOWN      CLOUDY    46  44  93 SE16G25   29.85F
$$




USA.gov is the U.S. government's official web portal to all federal, state and local government web resources and services.